User: anonymous   Login
Location: Unspecified
(42.0334°N, 93.6656°W)
Time: 03:52:06
(UTC-06:00)
Language:

Iridium 63 - Orbit

View from above orbital plane
View from above orbital plane
View from above satellite
View from above satellite

Ground track
Ground track

The orbit data is extracted from the following two-line orbital elements,

1 25286U 98021B   17019.53403583  .00000094  00000-0  26333-4 0  9996
2 25286  86.4001 286.4458 0001898  90.9786  11.4185 14.34636708983738
Epoch (UTC): 19 January 2017 12:49:00
Eccentricity: 0.0001898
inclination: 86.4001°
perigee height: 775 km
apogee height: 777 km
right ascension of ascending node: 286.4458°
argument of perigee: 90.9786°
revolutions per day: 14.34636708
mean anomaly at epoch: 11.4185°
orbit number at epoch: 98373

The dashed part of the orbit path shows where the satellite is in the earth's shadow,  

DLR